TimeCET,TemperatureF,Dew PointF,Humidity,Sea Level PressureIn,VisibilityMPH,Wind Direction,Wind SpeedMPH,Gust SpeedMPH,PrecipitationIn,Events,Conditions,WindDirDegrees,DateUTC
12:20 AM,51.8,46.4,82,30.21,5.0,Variable,1.2,-,N/A,,Mostly Cloudy,0,2014-02-26 23:20:00
12:50 AM,51.8,44.6,76,30.21,5.0,Variable,1.2,-,N/A,,Mostly Cloudy,0,2014-02-26 23:50:00
1:00 AM,53,46,70,30.22,5,ENE,1.2,,,,Mist,70,2014-02-27 00:00:00
1:20 AM,51.8,48.2,88,30.21,5.0,Variable,2.3,-,N/A,,Mostly Cloudy,0,2014-02-27 00:20:00
2:20 AM,51.8,48.2,88,30.18,5.0,ENE,3.5,-,N/A,,Mostly Cloudy,70,2014-02-27 01:20:00
2:50 AM,53.6,46.4,77,30.18,5.0,East,3.5,-,N/A,,Mostly Cloudy,80,2014-02-27 01:50:00
3:20 AM,51.8,46.4,82,30.18,5.0,ENE,3.5,-,N/A,,Mostly Cloudy,70,2014-02-27 02:20:00
3:50 AM,51.8,46.4,82,30.18,4.3,ENE,4.6,-,N/A,,Drizzle,70,2014-02-27 02:50:00
4:00 AM,53,48,76,30.20,4,NE,3.5,,,,Mist,40,2014-02-27 03:00:00
4:20 AM,51.8,48.2,88,30.18,3.7,NE,2.3,-,N/A,Rain-Thunderstorm,Light Rain,40,2014-02-27 03:20:00
4:50 AM,50.0,48.2,94,30.21,1.2,WNW,9.2,-,N/A,Rain-Thunderstorm,Heavy Rain,300,2014-02-27 03:50:00
5:20 AM,50.0,48.2,94,30.21,1.9,Variable,1.2,-,N/A,Rain-Thunderstorm,Rain,0,2014-02-27 04:20:00
5:50 AM,50.0,48.2,94,30.21,2.5,ENE,6.9,-,N/A,Rain,Light Rain,60,2014-02-27 04:50:00
6:20 AM,50.0,50.0,100,30.21,1.9,ENE,5.8,-,N/A,,Mostly Cloudy,60,2014-02-27 05:20:00
6:50 AM,50.0,48.2,94,30.21,1.9,East,3.5,-,N/A,,Mostly Cloudy,90,2014-02-27 05:50:00
7:00 AM,50,49,95,30.23,2,East,4.6,,,,Mist,80,2014-02-27 06:00:00
7:20 AM,50.0,48.2,94,30.21,2.5,NE,5.8,-,N/A,Rain,Light Rain,40,2014-02-27 06:20:00
7:50 AM,50.0,48.2,94,30.21,2.5,Variable,2.3,-,N/A,Rain,Light Rain,0,2014-02-27 06:50:00
8:20 AM,50.0,48.2,94,30.21,2.5,SE,6.9,-,N/A,Rain,Light Rain,140,2014-02-27 07:20:00
8:50 AM,50.0,48.2,94,30.18,3.7,SSE,11.5,-,N/A,Rain,Light Rain,160,2014-02-27 07:50:00
9:20 AM,50.0,48.2,94,30.21,6.2,South,8.1,-,N/A,,Light Drizzle,170,2014-02-27 08:20:00
9:50 AM,51.8,44.6,76,30.18,6.2,SW,3.5,-,N/A,,Mostly Cloudy,220,2014-02-27 08:50:00
10:00 AM,52,47,76,30.22,12,North,4.6,,,,Partly Cloudy,350,2014-02-27 09:00:00
10:20 AM,51.8,48.2,88,30.21,6.2,NNW,6.9,-,N/A,,Mostly Cloudy,340,2014-02-27 09:20:00
10:50 AM,51.8,48.2,88,30.21,6.2,NNW,6.9,-,N/A,,Mostly Cloudy,340,2014-02-27 09:50:00
11:20 AM,51.8,46.4,82,30.21,6.2,NNW,5.8,-,N/A,,Mostly Cloudy,340,2014-02-27 10:20:00
11:50 AM,53.6,46.4,77,30.18,6.2,NNW,3.5,-,N/A,,Mostly Cloudy,330,2014-02-27 10:50:00
12:20 PM,53.6,48.2,82,30.18,6.2,WNW,4.6,-,N/A,,Mostly Cloudy,290,2014-02-27 11:20:00
12:50 PM,55.4,46.4,72,30.18,6.2,Variable,1.2,-,N/A,,Mostly Cloudy,0,2014-02-27 11:50:00
1:00 PM,55,46,63,30.19,16,South,3.5,,,,Mostly Cloudy,180,2014-02-27 12:00:00
1:20 PM,55.4,44.6,67,30.18,6.2,South,4.6,-,N/A,,Mostly Cloudy,190,2014-02-27 12:20:00
1:50 PM,55.4,46.4,72,30.15,6.2,South,3.5,-,N/A,,Mostly Cloudy,190,2014-02-27 12:50:00
2:20 PM,55.4,44.6,67,30.15,6.2,SW,4.6,-,N/A,,Mostly Cloudy,220,2014-02-27 13:20:00
2:50 PM,57.2,44.6,63,30.15,6.2,Variable,2.3,-,N/A,,Mostly Cloudy,0,2014-02-27 13:50:00
3:20 PM,57.2,44.6,63,30.15,6.2,SW,3.5,-,N/A,,Mostly Cloudy,230,2014-02-27 14:20:00
3:50 PM,57.2,42.8,59,30.12,6.2,Variable,2.3,-,N/A,,Mostly Cloudy,0,2014-02-27 14:50:00
4:00 PM,57,42,46,30.15,12,West,3.5,,,,Mostly Cloudy,260,2014-02-27 15:00:00
4:20 PM,57.2,42.8,59,30.12,6.2,Variable,2.3,-,N/A,,Mostly Cloudy,0,2014-02-27 15:20:00
4:50 PM,57.2,42.8,59,30.12,6.2,West,3.5,-,N/A,,Mostly Cloudy,260,2014-02-27 15:50:00
5:20 PM,57.2,44.6,63,30.12,6.2,SW,4.6,-,N/A,,Mostly Cloudy,220,2014-02-27 16:20:00
5:50 PM,55.4,44.6,67,30.12,6.2,SSW,4.6,-,N/A,,Mostly Cloudy,210,2014-02-27 16:50:00
6:20 PM,53.6,44.6,72,30.12,6.2,SSW,3.5,-,N/A,,Scattered Clouds,200,2014-02-27 17:20:00
6:50 PM,53.6,44.6,72,30.12,6.2,SW,2.3,-,N/A,,Scattered Clouds,220,2014-02-27 17:50:00
7:00 PM,54,44,61,30.14,6,SW,3.5,,,,Mostly Cloudy,220,2014-02-27 18:00:00
7:20 PM,55.4,44.6,67,30.12,6.2,SW,4.6,-,N/A,,Scattered Clouds,230,2014-02-27 18:20:00
7:50 PM,53.6,44.6,72,30.12,6.2,Variable,2.3,-,N/A,,Scattered Clouds,0,2014-02-27 18:50:00
8:20 PM,53.6,44.6,72,30.12,6.2,South,3.5,-,N/A,,Scattered Clouds,190,2014-02-27 19:20:00
8:50 PM,53.6,46.4,77,30.12,6.2,South,4.6,-,N/A,,Scattered Clouds,190,2014-02-27 19:50:00
9:50 PM,53.6,46.4,77,30.12,6.2,South,3.5,-,N/A,,Scattered Clouds,190,2014-02-27 20:50:00
10:00 PM,53,46,71,30.14,6,SSW,4.6,,,,Mostly Cloudy,210,2014-02-27 21:00:00
10:20 PM,51.8,48.2,88,30.12,6.2,SW,5.8,-,N/A,Rain,Rain,220,2014-02-27 21:20:00
10:50 PM,51.8,48.2,88,30.12,6.2,South,4.6,-,N/A,Thunderstorm,Thunderstorm,170,2014-02-27 21:50:00
11:20 PM,50.0,48.2,94,30.12,6.2,Variable,2.3,-,N/A,,Mostly Cloudy,0,2014-02-27 22:20:00
11:50 PM,50.0,46.4,87,30.12,6.2,Variable,2.3,-,N/A,,Mostly Cloudy,0,2014-02-27 22:50:00